Date String (YYYY-MM-DD hh:mm:ss) UTC,Instrument flags,absolute air pressure of the measurement (hPa),sample flow rate (lpm),inlet stack bypass flow (lpm),air temperature of the measurement (°C),ambient temperature measured by the external sensor (°C),aerosol sample conditioner tube jacket temperature (°C),OPC LED temperature (°C),internal box temperature (°C),relative humidity of the measurement (%),span deviation,mass concentration of particles derived from Lorenz-Mie calculation of OPC scattering (μg/m³),mass concentration of particles derived from Lorenz-Mie calculation of OPC scattering (μg/m³),mass concentration of particles derived from Lorenz-Mie calculation of OPC scattering (μg/m³)
DateTimeUTC,F1_M11,P_M11,Q1_M11,Q2_M11,T1_M11,T2_M11,T3_M11,T4_M11,T5_M11,U1_M11,ZSPAN_M11,X2_M11,X0_M11,X1_M11
2023-06-16 02:00:00,SystemResetWarning,0828.4,5.00,000.00,029.8,028.4,000.0,038.3,031.4,24.5,0000.0,0003.29,0008.84,0002.02
2023-06-16 02:01:00,SystemResetWarning,0828.4,5.00,000.00,029.9,028.5,000.0,038.3,031.5,24.5,0000.0,0003.27,0008.98,0001.95
2023-06-16 02:02:00,SystemResetWarning,0828.4,5.00,000.00,029.9,028.5,000.0,038.3,031.5,24.1,0000.0,0003.20,0008.83,0001.87
2023-06-16 02:03:00,SystemResetWarning,0828.5,5.00,000.00,029.9,028.6,000.0,038.3,031.5,23.9,0000.0,0003.14,0008.69,0001.83
2023-06-16 02:04:00,SystemResetWarning,0828.6,5.00,000.00,029.9,028.6,000.0,038.4,031.6,24.5,0000.0,0003.08,0007.81,0001.78
2023-06-16 02:05:00,SystemResetWarning,0828.7,5.00,000.00,030.0,028.7,000.0,038.4,031.6,24.8,0000.0,0002.98,0007.51,0001.73
2023-06-16 02:06:00,SystemResetWarning,0828.8,5.00,000.00,030.0,028.7,000.0,038.4,031.6,24.6,0000.0,0002.80,0007.28,0001.66
2023-06-16 02:07:00,SystemResetWarning,0828.8,5.00,000.00,030.0,028.7,000.0,038.4,031.7,24.1,0000.0,0002.70,0007.01,0001.59
2023-06-16 02:08:00,SystemResetWarning,0828.9,4.99,000.00,030.1,027.9,000.0,038.4,031.7,24.2,0000.0,0002.58,0006.76,0001.51
2023-06-16 02:09:00,SystemResetWarning,0828.8,5.00,000.00,030.0,025.5,000.0,038.4,031.5,24.2,0000.0,0002.46,0006.53,0001.45
2023-06-16 02:10:00,SystemResetWarning,0828.8,5.00,000.00,030.0,024.7,000.0,038.3,031.3,24.8,0000.0,0002.54,0006.21,0001.44
2023-06-16 02:11:00,SystemResetWarning,0828.8,5.02,000.00,029.8,024.8,000.0,038.3,031.0,25.9,0000.0,0002.58,0005.43,0001.46
2023-06-16 02:12:00,SystemResetWarning,0828.8,5.01,000.00,029.7,025.3,000.0,038.3,031.0,26.1,0000.0,0002.60,0004.87,0001.49
2023-06-16 02:13:00,SystemResetWarning,0828.8,5.00,000.00,029.7,025.8,000.0,038.3,031.0,27.0,0000.0,0002.65,0004.99,0001.54
2023-06-16 02:14:00,SystemResetWarning,0828.9,5.00,000.00,029.7,026.2,000.0,038.3,031.0,27.0,0000.0,0002.73,0005.80,0001.57
2023-06-16 02:15:00,SystemResetWarning,0828.9,5.00,000.00,029.7,026.6,000.0,038.3,031.0,28.1,0000.0,0002.85,0006.15,0001.60
2023-06-16 02:16:00,SystemResetWarning,0829.0,5.00,000.00,029.7,027.0,000.0,038.3,031.1,28.1,0000.0,0002.93,0006.88,0001.64
2023-06-16 02:17:00,SystemResetWarning,0828.9,4.98,000.00,029.7,027.3,000.0,038.3,031.2,28.3,0000.0,0003.10,0007.77,0001.68
2023-06-16 02:18:00,SystemResetWarning,0829.0,4.99,000.00,029.7,027.5,000.0,038.3,031.2,28.3,0000.0,0003.16,0007.91,0001.73
2023-06-16 02:19:00,SystemResetWarning,0829.1,5.01,000.00,029.7,027.7,000.0,038.3,031.2,28.3,0000.0,0003.19,0007.96,0001.79
2023-06-16 02:20:00,SystemResetWarning,0829.1,5.01,000.00,029.7,027.9,000.0,038.3,031.2,28.1,0000.0,0003.21,0008.17,0001.85
2023-06-16 02:21:00,SystemResetWarning,0829.1,5.00,000.00,029.7,028.0,000.0,038.3,031.3,28.1,0000.0,0003.20,0008.36,0001.88
2023-06-16 02:22:00,SystemResetWarning,0829.0,5.00,000.00,029.8,028.1,000.0,038.3,031.4,28.2,0000.0,0003.24,0008.88,0001.92
2023-06-16 02:23:00,SystemResetWarning,0829.0,5.00,000.00,029.8,028.2,000.0,038.3,031.4,28.3,0000.0,0003.25,0009.00,0001.95
2023-06-16 02:24:00,SystemResetWarning,0829.0,5.00,000.00,029.8,028.3,000.0,038.3,031.4,28.2,0000.0,0003.30,0009.17,0001.97
2023-06-16 02:25:00,SystemResetWarning,0829.0,5.00,000.00,029.8,028.4,000.0,038.3,031.5,28.3,0000.0,0003.33,0009.10,0001.99
2023-06-16 02:26:00,SystemResetWarning,0828.9,5.00,000.00,029.9,028.5,000.0,038.4,031.5,27.7,0000.0,0003.33,0009.07,0002.01
2023-06-16 02:27:00,SystemResetWarning,0829.0,5.00,000.00,029.9,028.5,000.0,038.4,031.5,28.2,0000.0,0003.34,0008.82,0002.01
2023-06-16 02:28:00,SystemResetWarning,0829.0,5.00,000.00,029.9,028.6,000.0,038.4,031.5,27.7,0000.0,0003.30,0008.19,0002.01
2023-06-16 02:29:00,SystemResetWarning,0829.0,5.00,000.00,030.0,028.6,000.0,038.4,031.6,27.5,0000.0,0003.24,0008.01,0002.00
2023-06-16 02:30:00,SystemResetWarning,0829.1,5.00,000.00,030.0,028.7,000.0,038.4,031.6,27.9,0000.0,0003.21,0007.95,0002.01
2023-06-16 02:31:00,SystemResetWarning,0829.1,4.99,000.00,030.0,028.7,000.0,038.5,031.6,27.7,0000.0,0003.20,0008.15,0001.98
2023-06-16 02:32:00,SystemResetWarning,0829.2,5.00,000.00,030.1,028.6,000.0,038.5,031.7,27.0,0000.0,0003.15,0008.00,0001.96
2023-06-16 02:33:00,SystemResetWarning,0829.3,4.98,000.00,030.1,026.7,000.0,038.4,031.6,26.6,0000.0,0003.08,0007.02,0001.92
2023-06-16 02:34:00,SystemResetWarning,0829.3,5.00,000.00,030.0,025.0,000.0,038.4,031.4,26.7,0000.0,0003.09,0006.91,0001.91
2023-06-16 02:35:00,SystemResetWarning,0829.4,5.00,000.00,029.9,024.8,000.0,038.3,031.2,27.0,0000.0,0002.97,0006.57,0001.89
2023-06-16 02:36:00,SystemResetWarning,0829.3,5.01,000.00,029.8,025.1,000.0,038.3,031.0,27.1,0000.0,0002.90,0005.92,0001.89
2023-06-16 02:37:00,SystemResetWarning,0829.4,5.01,000.00,029.7,025.6,000.0,038.3,031.0,27.4,0000.0,0002.86,0005.81,0001.90
2023-06-16 02:38:00,SystemResetWarning,0829.4,5.00,000.00,029.7,026.1,000.0,038.3,031.0,27.9,0000.0,0002.93,0006.46,0001.91
2023-06-16 02:39:00,SystemResetWarning,0829.4,4.99,000.00,029.7,026.5,000.0,038.3,031.1,28.0,0000.0,0003.01,0006.80,0001.93
2023-06-16 02:40:00,SystemResetWarning,0829.5,5.00,000.00,029.7,026.9,000.0,038.3,031.1,28.2,0000.0,0003.12,0007.85,0001.96
2023-06-16 02:41:00,SystemResetWarning,0829.6,4.98,000.00,029.7,027.2,000.0,038.3,031.1,28.2,0000.0,0003.18,0008.06,0001.98
2023-06-16 02:42:00,SystemResetWarning,0829.6,5.01,000.00,029.7,027.4,000.0,038.3,031.2,28.4,0000.0,0003.20,0007.63,0002.02
2023-06-16 02:43:00,SystemResetWarning,0829.7,5.01,000.00,029.7,027.7,000.0,038.3,031.3,28.7,0000.0,0003.25,0007.75,0002.06
2023-06-16 02:44:00,SystemResetWarning,0829.7,4.99,000.00,029.7,027.8,000.0,038.3,031.3,28.8,0000.0,0003.32,0007.95,0002.10
2023-06-16 02:45:00,SystemResetWarning,0829.7,5.00,000.00,029.8,028.0,000.0,038.3,031.3,28.9,0000.0,0003.33,0008.02,0002.13
2023-06-16 02:46:00,SystemResetWarning,0829.7,5.00,000.00,029.8,028.1,000.0,038.3,031.3,29.4,0000.0,0003.38,0008.16,0002.18
2023-06-16 02:47:00,SystemResetWarning,0829.8,5.00,000.00,029.8,028.2,000.0,038.3,031.4,29.6,0000.0,0003.45,0008.46,0002.22
2023-06-16 02:48:00,SystemResetWarning,0829.8,5.01,000.00,029.8,028.3,000.0,038.3,031.4,29.5,0000.0,0003.50,0008.88,0002.25
2023-06-16 02:49:00,SystemResetWarning,0829.8,5.00,000.00,029.8,028.3,000.0,038.4,031.4,29.4,0000.0,0003.52,0009.50,0002.28
2023-06-16 02:50:00,SystemResetWarning,0829.9,5.00,000.00,029.9,028.4,000.0,038.4,031.5,29.5,0000.0,0003.52,0009.39,0002.31
2023-06-16 02:51:00,SystemResetWarning,0829.9,5.00,000.00,029.9,028.5,000.0,038.4,031.5,29.8,0000.0,0003.50,0008.82,0002.32
2023-06-16 02:52:00,SystemResetWarning,0829.9,5.00,000.00,029.9,028.5,000.0,038.4,031.5,29.9,0000.0,0003.51,0008.63,0002.36
2023-06-16 02:53:00,SystemResetWarning,0830.0,5.00,000.00,030.0,028.6,000.0,038.4,031.6,30.0,0000.0,0003.54,0008.75,0002.41
2023-06-16 02:54:00,SystemResetWarning,0830.0,5.00,000.00,030.0,028.6,000.0,038.4,031.6,30.3,0000.0,0003.60,0008.89,0002.47
2023-06-16 02:55:00,SystemResetWarning,0830.0,4.99,000.00,030.0,028.6,000.0,038.5,031.6,30.4,0000.0,0003.62,0008.93,0002.52
2023-06-16 02:56:00,SystemResetWarning,0830.0,5.00,000.00,030.0,028.7,000.0,038.5,031.7,30.4,0000.0,0003.68,0009.02,0002.59
2023-06-16 02:57:00,SystemResetWarning,0830.1,5.00,000.00,030.1,028.7,000.0,038.5,031.7,30.4,0000.0,0003.77,0009.22,0002.66
2023-06-16 02:58:00,SystemResetWarning,0830.1,5.00,000.00,030.1,028.7,000.0,038.5,031.7,30.3,0000.0,0003.84,0009.30,0002.75
2023-06-16 02:59:00,SystemResetWarning,0830.1,4.99,000.00,030.1,028.3,000.0,038.5,031.7,30.3,0000.0,0003.92,0009.51,0002.82
